Location: Unspecified
(0.0000°N, 0.0000°E)
Time: 01:46:18
(UTC+00:00)

Hubble Space Telescope - Pass Details

Date: 20 May 2017
Orbit: 538 x 542 km, 28.5° (Epoch: 22 June)

Event Time Altitude Azimuth Distance (km) Brightness Sun altitude
Rises 19:22:51 0° 221° (SW) 2,680 4.6 -20.2°
Reaches altitude 10° 19:25:24 10° 208° (SSW) 1,788 3.5 -20.8°
Enters shadow 19:26:56 18° 191° (S) 1,349 2.7 -21.1°
